+ View the NASA Portal
+ Center for Near-Earth Object Studies
IMPORTANT:
The SSD Announcement email list is now available. Major changes are coming in the near future, including possible hostname and/or URL changes. To be notified of such changes, subscribe to this email list.
Please visit
this page
for more details.
Don't show this message again
JPL Small-Body Database Browser
Search:
[
help
]
27923 (1996 XJ32)
Classification:
Main-belt Asteroid
SPK-ID:
2027923
[
Ephemeris
|
Orbit Diagram
|
Orbital Elements
|
Mission Design
|
Physical Parameters
|
Discovery Circumstances
|
Close-Approach Data
]
[ show orbit diagram ]
Orbital Elements at Epoch 2458600.5 (2019-Apr-27.0) TDB
Reference:
JPL 21
(heliocentric ecliptic J2000)
Element
Value
Uncertainty (1-sigma)
Units
e
.1642185520087746
4.2779e-08
a
3.163749260740636
1.9754e-08
au
q
2.644202938222978
1.388e-07
au
i
1.44834138120512
4.6982e-06
deg
node
77.21158996007749
0.00021512
deg
peri
345.1215719143803
0.00021573
deg
M
358.0891455962347
1.6756e-05
deg
t
p
2458611.410046677583
(2019-May-07.91004668)
9.5708e-05
TDB
period
2055.424419668204
5.63
1.9251e-05
5.271e-08
d
yr
n
.1751463087405145
1.6404e-09
deg/d
Q
3.683295583258295
2.2998e-08
au
Orbit Determination Parameters
# obs. used (total)
1130
data-arc span
20785 days (56.91 yr)
first obs. used
1962-12-04
last obs. used
2019-10-31
planetary ephem.
DE431
SB-pert. ephem.
SB431-N16
condition code
0
norm. resid. RMS
.55991
source
ORB
producer
Otto Matic
solution date
2019-Nov-07 05:02:52
Additional Information
Earth MOID
= 1.657 au
Jupiter MOID
= 1.64405 au
T_jup
= 3.183
[ show covariance matrix ]
[
Ephemeris
|
Orbit Diagram
|
Orbital Elements
|
Mission Design
|
Physical Parameters
|
Discovery Circumstances
|
Close-Approach Data
]
Physical Parameter Table
Parameter
Symbol
Value
Units
Sigma
Reference
Notes
absolute magnitude
H
13.9
n/a
MPO337494
27923 (1996 XJ32)
Discovered 1996-Dec-04 by Munari, U., Tombelli, M. at Cima Ekar
Reference:
20010902/Numbers.arc
Last Updated:
2004-04-19
[ show close-approach data ]
Alternate Designations
1996 XJ32
= 1962 XP1 = 1998 FG133
[
Ephemeris
|
Orbit Diagram
|
Orbital Elements
|
Mission Design
|
Physical Parameters
|
Discovery Circumstances
|
Close-Approach Data
]
2019-Dec-13 11:14 UT
(server date/time)
Site Manager:
Ryan S. Park
Webmaster
:
Alan B. Chamberlin